COSMOS 2251 DEB, 47048

Orbit data source: Space-Track

COSMOS 2251 DEB, 47048 is space debris in LEO originally from a launch on Wed, 16 Jun 1993 UTC launched from the Plesetsk Missile And Space Complex (PKMTR). The debris from Iridium 33, an American commercial communications satellite, has been tracked extensively since its accidental collision with the defunct Russian satellite Cosmos 2251 in 2009. This event, occurring at high speed in low Earth orbit (LEO), generated thousands of pieces of space debris, significantly increasing the risk of further collisions. The Iridium 33 debris cloud has impacted space traffic management and orbital debris mitigation strategies, making it a subject of ongoing study in space situational awareness.

Loading next visibility...
Identifier
47048, 1993-036BXC
Orbit
LEO
Country
Flag of CISCIS
Related business
Manufacturer
Unknown
Mission
Spacecraft
Bus & Motor
Unknown
Mass
Unknown
Launch date (UTC)
1993-06-16 (32 years ago)
Launch vehicle
Unknown
Launch site
Plesetsk Missile And Space Complex (PKMTR)
Object type
Payload
Rocket body
Debris
Shape & HBR
Unknown
Radar Cross Section
Small (<0.1 m²)

Expand to show TLE details & history
Last TLE update: 4 days ago

TLE from 4 days ago
0 COSMOS 2251 DEB
1 47048U 93036BXC 25256.92910828  .00003231  00000-0  73502-3 0  9992
2 47048  73.9776 128.9094 0137131 336.2237  40.1827 14.50701181583870
Epoch: 2025-09-13T22:17Z
TLE epoch observation values (Epoch: 2025-09-13T22:17:54.955Z)
Latitude
16.72787°
Longitude
166.19927°
Altitude
651.502 km
Speed
7.572 km/s
True Right ascension
08h 55m 20s
True Declination
16° 37' 55"
Sunlit
Object was in daylight at epoch
Visualization orbit readout
Latitude
Unknown
Longitude
Unknown
Altitude
Unknown
Speed
Unknown
Apparent Right ascension
Unknown
Apparent Declination
Unknown
Sunlit
N/A
Visualization observer readout
Local Sidereal Time
23:23:12
Azimuth
Unknown
Elevation
Unknown
Doppler factor
Unknown
Orbital elements
Apogee altitude
818.322 km
Perigee altitude
623.621 km
Semi-major axis
7,099.108 km
Eccentricity
0.01371
Inclination
73.9776°
RAAN
128.9094°
Arg. of periapsis
336.2237°
True anomaly
41.21001°
Mean anomaly
40.1827°
Eccentric anomaly
40.695°
Mean motion
3.62859 °/min
Orbital period
99.21 mins
BSTAR
0.00073502
Loading maneuver chart data...
Computing Atmospheric mass density...

Documentation

Showing up to 5 results
|